CAPE
4 7 0 0 0 0 7 18 25 31 64 32 21 1 9 19 22 19 0 0 0 0 0 0 0 0 0 0 0 0 0 0 0 0 0 0 0 0 0 0 0 0 0 0 0
0 4 1 0 3 16 15 10 9 14 46 27 0 14 4 39 0 0 0 4 39 19 0 0 0 0 0 0 0 0 0 0 0 0 0 0 0 0 0 0 0 0 0 0 0
0 0 0 1 7 4 0 4 18 11 29 33 21 61 33 10 0 0 0 0 85 56 0 0 0 0 0 0 0 0 0 0 0 0 0 0 0 0 0 0 0 0 0 0 0
0 0 0 0 0 2 6 21 0 0 23 46 48 52 30 1 0 0 18 0 87 2 0 0 0 0 0 0 0 0 0 0 0 0 0 0 0 0 0 0 0 0 0 0 0
0 0 0 0 0 0 2 14 6 11 10 24 49 15 5 0 0 0 117 358 63 2 0 0 0 0 0 0 0 0 0 0 0 0 0 0 0 0 0 0 0 0 0 0 0
0 0 0 0 0 0 5 3 38 44 31 35 20 12 0 0 0 0 81 158 40 0 0 0 0 0 0 0 0 0 0 0 0 0 0 0 0 0 0 0 0 0 0 0 0
0 0 0 0 0 0 0 20 2 0 0 17 0 0 0 0 0 0 0 40 0 0 0 0 0 0 0 0 0 0 0 0 0 0 0 0 0 0 0 0 0 0 0 0 0
0 0 0 0 0 0 0 0 2 0 2 0 0 0 0 0 0 0 0 0 0 0 0 0 0 0 0 0 0 0 0 0 0 0 0 0 0 0 0 0 0 0 0 0 0
0 0 0 0 0 0 0 0 4 2 12 0 0 0 0 0 0 0 0 0 0 0 0 0 0 0 0 0 0 0 0 0 0 0 0 0 0 0 0 0 0 0 0 0 0
0 0 0 0 0 0 0 0 0 4 2 3 0 0 0 0 0 0 0 0 0 0 0 0 0 0 0 0 0 0 0 0 0 0 0 0 0 0 0 0 0 0 0 0 0
0 0 0 0 0 0 0 0 0 0 0 0 0 0 0 0 0 0 0 0 0 0 0 0 0 0 0 0 0 0 0 0 0 0 0 0 0 0 0 0 0 0 0 0 0
0 0 0 0 0 0 0 0 0 0 0 0 0 0 0 0 0 0 0 0 0 0 0 0 0 0 0 0 0 0 0 0 0 0 0 0 0 0 0 0 0 0 0 0 0
0 0 0 0 0 0 0 0 0 0 0 0 0 0 0 0 0 0 0 0 0 0 0 0 0 0 0 0 0 0 0 0 0 0 0 0 0 0 0 0 0 0 0 0 0
0 0 0 0 0 0 0 0 0 0 0 0 0 0 0 0 0 0 0 0 0 0 0 0 0 0 0 0 0 0 0 0 0 0 0 0 0 0 0 0 0 0 0 0 0
0 0 0 0 0 0 0 0 0 0 0 0 0 0 0 0 0 0 0 0 0 0 0 0 0 0 0 0 0 0 0 0 0 0 0 0 0 0 0 0 0 0 0 0 0
0 0 0 0 0 0 0 0 0 0 0 0 0 0 0 0 0 0 0 0 0 0 0 0 0 0 0 0 0 0 0 0 0 0 0 0 0 0 0 0 0 0 0 0 0
0 0 0 0 0 0 0 0 0 0 0 0 0 0 0 0 0 0 0 0 0 0 0 0 0 0 0 0 0 0 0 0 0 0 0 0 0 0 0 0 0 0 0 0 0
0 0 0 0 0 0 0 0 0 0 0 0 0 0 0 0 0 0 0 0 0 0 0 0 0 0 0 0 0 0 0 0 0 0 0 0 0 0 0 0 0 0 0 0 0
0 0 0 0 0 0 0 0 0 0 0 0 0 0 0 0 0 0 0 0 0 0 0 0 0 0 0 0 0 0 0 0 0 0 0 0 0 0 0 0 0 0 0 0 0
0 0 0 0 0 0 0 0 0 0 0 0 0 0 0 0 0 0 0 0 0 0 0 0 0 0 0 0 0 0 0 0 0 0 0 0 0 0 0 0 0 0 0 0 0
0 0 0 0 0 0 0 0 0 0 0 0 0 0 0 0 0 0 0 0 0 0 0 0 0 0 0 0 0 0 0 0 0 0 0 0 0 0 0 0 0 0 0 0 0
0 0 0 0 0 0 0 0 0 0 0 0 0 0 0 0 0 0 0 0 0 0 0 0 0 0 0 0 0 0 0 0 0 0 0 0 0 0 0 0 0 0 0 0 0
0 0 0 0 0 0 0 0 0 0 0 0 0 0 0 0 0 0 0 0 0 0 0 0 0 0 0 0 0 0 0 0 0 0 0 0 0 0 0 0 0 0 0 0 0
0 0 0 0 0 0 0 0 0 0 0 0 0 0 0 0 0 0 0 0 0 0 0 0 0 0 0 0 0 0 0 0 0 0 0 0 0 0 0 0 0 0 0 0 0
0 0 0 0 0 0 0 0 0 0 0 0 0 0 0 0 0 0 0 0 0 0 0 0 0 0 0 0 0 0 0 0 0 0 0 0 0 0 0 0 0 0 0 0 0
0 0 0 0 0 0 0 0 0 0 0 0 0 0 0 0 0 0 0 0 0 0 0 0 0 0 0 0 0 0 0 0 0 0 0 0 0 0 0 0 0 0 0 0 0
0 0 0 0 0 0 0 0 0 0 0 0 0 0 0 0 0 0 0 0 0 0 0 0 0 0 0 0 0 0 0 0 0 0 0 0 0 0 0 0 0 0 0 0 0
CIN
0 0 0 0 0 0 -18 -40 -14 -22 -10 -25 -64 -21 -14 -10 -2 -1 0 0 0 0 0 0 0 0 0 0 0 0 0 0 0 0 0 0 0 0 0 0 0 0 0 0 0
0 0 0 0 -10 -27 -27 -5 -5 -17 -39 -55 0 -94 -12 -6 0 0 0 -8 -17 -11 0 0 0 0 0 0 0 0 0 0 0 0 0 0 0 0 0 0 0 0 0 0 0
0 0 0 -1 -20 -24 0 -3 -15 -8 -56 -58 -117 -68 -11 -6 0 0 0 0 -14 -4 0 0 0 0 0 0 0 0 0 0 0 0 0 0 0 0 0 0 0 0 0 0 0
0 0 0 0 0 -9 -6 -7 0 0 -8 -10 -22 -13 -8 -2 0 0 -59 0 -23 -9 0 0 0 0 0 0 0 0 0 0 0 0 0 0 0 0 0 0 0 0 0 0 0
0 0 0 0 0 0 0 -5 -12 -5 -21 -8 -7 -12 -6 0 0 0 -37 -20 -23 -18 0 0 0 0 0 0 0 0 0 0 0 0 0 0 0 0 0 0 0 0 0 0 0
0 0 0 0 0 0 -17 -16 -9 -3 -4 -12 -13 -15 -1 0 0 0 -57 -50 -36 -5 0 0 0 0 0 0 0 0 0 0 0 0 0 0 0 0 0 0 0 0 0 0 0
0 0 0 0 0 0 0 -15 -37 0 -3 -13 0 0 0 0 0 0 0 -66 0 -1 0 0 0 0 0 0 0 0 0 0 0 0 0 0 0 0 0 0 0 0 0 0 0
0 0 0 0 0 0 0 0 -69 -10 -29 0 0 0 0 0 0 0 0 0 0 0 0 0 0 0 0 0 0 0 0 0 0 0 0 0 0 0 0 0 0 0 0 0 0
0 0 0 0 0 0 0 0 -67 -38 -35 0 0 0 0 0 0 0 0 0 0 0 0 0 0 0 0 0 0 0 0 0 0 0 0 0 0 0 0 0 0 0 0 0 0
0 0 0 0 0 0 0 0 0 -19 -9 -47 -12 0 0 0 0 0 0 0 0 0 0 0 0 0 0 0 0 0 0 0 0 0 0 0 0 0 0 0 0 0 0 0 0
0 0 0 0 0 0 0 0 0 0 0 0 0 0 0 0 0 0 0 0 0 0 0 0 0 0 0 0 0 0 0 0 0 0 0 0 0 0 0 0 0 0 0 0 0
0 0 0 0 0 0 0 0 0 0 0 0 0 0 0 0 0 0 0 0 0 0 0 0 0 0 0 0 0 0 0 0 0 0 0 0 0 0 0 0 0 0 0 0 0
0 0 0 0 0 0 0 0 0 0 0 0 0 -3 0 0 0 0 0 0 0 0 0 0 0 0 0 0 0 0 0 0 0 0 0 0 0 0 0 0 0 0 0 0 0
0 0 0 0 0 0 0 0 0 0 0 0 0 0 0 0 0 0 0 0 0 0 0 0 0 0 0 0 0 0 0 0 0 0 0 0 0 0 0 0 0 0 0 0 0
0 0 0 0 0 0 0 0 0 0 0 0 0 0 0 0 0 0 0 0 0 0 0 0 0 0 0 0 0 0 0 0 0 0 0 0 0 0 0 0 0 0 0 0 0
0 0 0 0 0 0 0 0 0 0 0 0 0 0 0 0 0 0 0 0 0 0 0 0 0 0 0 0 0 0 0 0 0 0 0 0 0 0 0 0 0 0 0 0 0
0 0 0 0 0 0 0 0 0 0 0 0 0 0 0 0 0 0 0 0 0 0 0 0 0 0 0 0 0 0 0 0 0 0 0 0 0 0 0 0 0 0 0 0 0
0 0 0 0 0 0 0 0 0 0 0 0 0 0 0 0 0 0 0 0 0 0 0 0 0 0 0 0 0 0 0 0 0 0 0 0 0 0 0 0 0 0 0 0 0
0 0 0 0 0 0 0 0 0 0 0 0 0 0 0 0 0 0 0 0 0 0 0 0 0 0 0 0 0 0 0 0 0 0 0 0 0 0 0 0 0 0 0 0 0
0 0 0 0 0 0 0 0 0 0 0 0 0 0 0 0 0 0 0 0 0 0 0 0 0 0 0 0 0 0 0 0 0 0 0 0 0 0 0 0 0 0 0 0 0
0 0 0 0 0 0 0 0 0 0 0 0 0 0 0 0 0 0 0 0 0 0 0 0 0 0 0 0 0 0 0 0 0 0 0 0 0 0 0 0 0 0 0 0 0
0 0 0 0 0 0 0 0 0 0 0 0 0 0 0 0 0 0 0 0 0 0 0 0 0 0 0 0 0 0 0 0 0 0 0 0 0 0 0 0 0 0 0 0 0
0 0 0 0 0 0 0 0 0 0 0 0 0 0 0 0 0 0 0 0 0 0 0 0 0 0 0 0 0 0 0 0 0 0 0 0 0 0 0 0 0 0 0 0 0
0 0 0 0 0 0 0 0 0 0 0 0 0 0 0 0 0 0 0 0 0 0 0 0 0 0 0 0 0 0 0 0 0 0 0 0 0 0 0 0 0 0 0 0 0
0 0 0 0 0 0 0 0 0 0 0 0 0 0 0 0 0 0 0 0 0 0 0 0 0 0 0 0 0 0 0 0 0 0 0 0 0 0 0 0 0 0 0 0 0
0 0 0 0 0 0 0 0 0 0 0 0 0 0 0 0 0 0 0 0 0 0 0 0 0 0 0 0 0 0 0 0 0 0 0 0 0 0 0 0 0 0 0 0 0
0 0 0 0 0 0 0 0 0 0 0 0 0 0 0 0 0 0 0 0 0 0 0 0 0 0 0 0 0 0 0 0 0 0 0 0 0 0 0 0 0 0 0 0 0
Wind_Speed
33 33 30 26 23 20 17 23 19 21 19 20 21 21 19 17 18 24 33 27 27 26 24 26 26 26 25 26 23 20 28 29 26 21 21 14 14 13 14 11 12 12 11 12 11
32 33 30 27 24 22 19 20 20 20 19 19 20 20 17 16 20 28 26 27 27 27 26 28 30 27 29 29 27 27 33 31 25 21 21 15 15 10 13 12 13 12 12 9 10
32 32 30 29 27 23 21 17 17 21 21 19 17 16 15 13 22 26 25 29 25 26 25 25 25 28 31 29 30 29 33 28 25 23 20 16 16 14 11 14 12 8 6 6 7
28 30 30 29 30 29 22 20 18 17 17 16 15 13 12 15 20 20 19 22 24 19 24 26 27 31 32 33 30 31 29 25 22 20 20 18 14 17 15 18 17 13 4 4 5
22 25 26 28 31 33 30 20 19 17 15 13 11 8 12 19 22 20 21 19 20 20 26 27 30 30 34 32 29 31 27 23 22 19 18 15 15 15 14 16 16 11 5 3 4
15 17 20 25 27 33 33 25 21 17 15 12 10 7 14 19 18 18 15 11 17 20 25 26 28 26 30 31 31 29 25 24 22 20 18 18 17 17 17 16 14 8 4 3 2
12 12 15 19 22 28 32 27 23 18 15 14 12 12 17 21 15 16 14 14 17 20 23 25 22 25 26 29 26 23 28 25 24 22 20 20 24 21 19 15 13 10 8 6 5
11 12 13 15 16 19 23 23 23 19 16 16 15 12 17 17 16 16 15 15 17 20 21 22 23 24 24 23 25 27 26 31 27 22 22 20 28 21 20 13 11 9 8 7 8
11 12 12 13 15 16 17 16 13 16 16 14 12 13 17 15 17 17 15 15 17 20 21 21 21 24 24 29 30 28 33 31 27 23 22 22 26 22 19 15 12 9 8 9 11
10 12 13 13 13 15 17 16 16 12 19 16 13 15 16 14 14 14 14 13 16 18 20 22 24 28 28 31 39 34 30 30 28 25 25 26 29 23 20 16 11 9 10 10 8
10 10 12 12 12 14 18 20 20 15 14 16 15 16 14 12 12 14 14 14 14 19 25 24 30 33 31 29 26 27 27 28 28 23 24 29 33 32 26 20 13 10 8 7 8
10 9 11 12 12 14 15 21 20 23 20 17 17 15 17 14 11 13 14 15 19 23 21 24 31 25 23 22 23 25 27 26 24 24 25 26 34 32 26 21 15 10 8 8 9
12 10 9 12 14 15 15 17 17 18 20 16 15 12 16 15 15 14 16 17 19 20 22 26 24 22 23 23 23 24 27 27 24 22 23 28 33 27 23 22 21 20 17 13 9
15 14 13 15 15 15 13 16 16 16 21 19 16 15 16 17 13 17 18 18 19 19 18 18 20 21 21 24 23 25 23 23 23 22 27 22 32 25 23 24 22 21 17 12 9
15 17 16 16 15 15 15 15 16 17 23 13 16 16 15 17 21 17 16 17 20 17 18 21 21 21 22 22 21 22 19 19 21 22 24 23 27 25 23 24 22 19 17 11 8
15 16 19 17 15 14 15 16 17 22 25 17 15 15 17 16 18 19 17 14 20 15 10 16 15 18 19 17 18 14 16 16 18 21 30 25 25 26 22 22 22 19 16 10 9
15 15 17 18 18 16 16 18 22 26 17 17 16 17 18 17 18 18 19 21 17 17 18 16 18 17 17 18 17 18 17 22 26 27 30 20 24 26 22 20 20 20 13 11 10
16 16 17 16 18 20 17 21 30 24 23 20 18 16 20 17 16 16 19 20 18 15 13 19 22 19 18 19 20 20 19 22 27 27 26 21 26 21 20 21 20 20 13 11 11
18 17 17 15 15 17 19 24 25 23 21 21 20 19 20 19 16 15 17 20 18 17 13 15 18 17 16 17 18 20 22 17 20 21 26 23 23 25 22 20 20 18 13 13 14
18 17 18 15 15 16 19 23 21 19 18 18 21 20 21 20 17 18 19 18 18 17 16 15 14 17 17 16 16 18 13 20 21 27 30 26 25 22 19 16 18 18 16 16 17
19 19 17 17 17 19 21 20 19 17 16 16 18 19 19 20 19 19 18 17 18 17 15 15 14 16 17 19 18 17 19 18 17 20 25 29 25 19 20 19 18 18 16 16 17
21 23 20 18 19 18 19 17 15 16 15 16 15 15 18 19 19 19 19 19 19 18 17 16 13 13 17 19 19 20 19 17 21 23 21 24 27 22 23 21 17 16 16 16 17
24 23 20 19 24 22 17 14 14 13 13 15 15 16 15 16 17 18 18 18 17 19 19 18 16 14 16 19 20 20 20 19 18 19 21 24 25 21 20 20 17 15 15 16 17
24 26 24 25 23 22 19 18 16 12 12 13 14 15 15 15 15 16 17 17 17 19 19 19 21 20 18 17 16 18 19 18 18 21 24 22 32 25 22 19 17 16 16 17 18
24 23 23 27 26 24 21 19 18 16 13 12 12 13 14 13 13 15 16 17 18 19 20 21 23 25 27 28 27 27 22 9 9 15 17 31 24 27 19 17 16 16 16 17 18
23 23 22 23 22 24 24 22 20 18 15 14 13 12 11 10 12 11 13 15 16 17 19 22 24 24 27 26 29 34 36 18 10 19 19 32 36 24 27 19 17 15 15 17 19
20 21 21 23 24 25 21 21 22 23 19 18 16 15 13 12 15 18 17 12 8 6 6 11 12 20 23 25 29 34 22 11 20 21 21 24 27 23 23 19 17 16 17 19 20
Wind_Direction
15 9 11 21 18 18 12 309 306 285 288 279 274 273 280 290 286 270 256 258 258 261 262 254 249 246 246 243 248 252 248 251 255 261 268 272 278 292 299 321 314 323 352 357 90
20 14 17 25 31 33 28 328 298 290 290 287 278 278 285 293 283 269 268 260 260 258 255 246 240 239 239 239 242 243 243 248 258 263 269 271 276 284 297 306 310 315 324 17 88
29 23 18 16 26 34 26 20 335 295 289 290 292 290 286 290 282 276 271 254 258 257 251 246 242 237 235 237 238 242 245 252 258 263 271 268 274 284 294 299 305 318 346 55 87
39 34 29 26 24 24 22 4 350 329 312 299 293 290 284 277 275 289 284 253 251 256 246 241 237 232 233 232 238 241 248 253 261 267 267 268 278 280 282 293 302 304 354 71 99
51 47 44 34 27 24 16 13 346 341 330 316 310 303 276 270 269 290 282 256 249 249 240 237 231 231 231 234 235 241 245 253 261 267 270 274 278 285 288 296 298 308 338 64 79
61 64 58 44 38 28 25 32 15 351 340 334 319 299 275 267 278 287 291 261 247 247 239 236 233 236 235 234 233 241 246 250 258 263 268 267 274 280 284 290 298 310 328 359 26
74 76 69 62 55 42 31 33 20 348 327 324 306 291 270 260 288 285 282 262 251 247 239 236 237 235 236 231 236 241 240 247 253 259 265 269 267 272 283 295 298 301 310 324 339
83 86 84 77 74 67 55 47 33 4 342 305 301 299 272 277 279 277 275 262 252 245 243 237 238 239 236 234 233 236 241 239 248 255 263 264 260 278 281 293 297 302 309 320 329
86 86 84 86 81 75 67 72 84 8 313 291 294 281 268 275 267 270 270 256 249 239 235 239 234 233 233 225 226 235 235 239 246 254 262 261 266 280 291 288 291 300 309 317 321
91 86 83 83 86 79 72 86 96 128 60 94 256 270 263 258 267 265 264 251 242 228 227 228 227 227 228 224 224 229 236 240 246 253 258 262 263 277 292 292 291 300 309 318 325
94 92 85 87 90 87 81 80 83 106 139 171 220 210 245 258 263 257 251 241 234 223 218 224 218 222 225 229 232 233 239 243 249 261 261 262 265 269 281 291 294 294 305 312 321
94 100 92 90 96 91 94 79 90 88 102 139 148 207 210 237 255 252 234 237 222 214 219 218 217 226 226 229 232 235 238 245 256 259 264 270 266 273 279 286 291 289 294 300 312
86 104 109 99 95 98 95 95 110 114 106 115 151 196 193 211 225 225 223 226 215 216 218 216 219 229 227 229 232 239 241 245 255 264 268 272 271 277 284 287 291 295 296 296 294
83 91 113 106 98 102 107 109 117 138 104 116 149 169 183 194 215 212 219 216 214 213 218 223 229 227 228 231 239 240 250 252 255 263 263 276 269 281 288 287 292 297 299 297 291
87 83 102 111 101 101 105 116 118 120 96 132 143 160 184 189 179 201 213 214 210 217 229 226 225 227 230 236 244 245 256 254 257 262 270 274 277 283 291 292 296 302 306 304 297
90 85 96 95 102 108 113 115 116 93 96 130 144 155 167 183 177 185 202 216 201 220 242 232 241 239 240 244 248 244 255 262 265 268 265 273 278 283 294 299 302 303 308 312 305
89 91 96 95 86 113 115 108 90 86 109 121 138 145 163 180 177 183 184 185 207 216 225 232 236 244 246 242 248 251 251 254 256 260 264 284 282 281 295 303 310 309 312 313 312
92 90 92 101 98 100 113 94 79 95 104 113 127 153 150 183 194 191 187 189 192 222 230 226 227 238 249 248 248 249 255 256 256 262 272 286 281 294 302 301 305 309 311 315 314
88 88 85 97 110 102 93 83 86 98 109 112 116 133 148 164 197 211 208 203 208 215 242 235 239 248 253 255 254 253 256 271 274 282 279 284 292 297 300 302 306 311 313 312 311
76 83 76 93 104 100 92 88 96 109 115 115 110 123 130 147 183 199 203 223 223 227 238 248 249 250 255 258 266 264 265 267 275 273 275 284 291 296 310 311 309 309 308 309 314
62 66 72 85 91 87 86 97 106 114 114 117 116 119 130 143 154 181 196 223 229 234 244 251 263 257 257 257 260 265 269 278 284 283 283 286 294 305 309 310 311 312 313 315 320
47 41 56 74 75 86 89 102 113 111 117 119 128 132 129 136 147 164 173 200 223 234 247 252 271 271 264 267 269 270 275 277 280 284 291 294 294 302 305 309 314 318 322 325 328
33 33 51 57 44 56 83 102 110 112 115 116 123 132 145 144 142 152 163 200 222 224 237 246 268 276 278 274 271 275 275 281 289 295 290 292 297 310 314 315 319 322 324 324 326
29 13 24 26 27 36 47 56 72 114 122 125 127 134 134 142 158 150 164 183 218 210 234 242 248 260 276 284 284 284 284 282 286 291 293 292 295 307 310 312 314 316 321 324 326
13 13 23 3 358 360 11 26 32 48 94 125 124 134 135 123 140 150 161 175 192 229 232 227 217 230 236 246 266 274 290 291 248 288 293 299 303 309 311 309 310 314 317 320 324
360 3 9 10 14 1 350 353 0 12 26 33 47 70 119 116 137 120 141 165 174 177 190 246 229 252 250 277 270 248 256 297 265 296 292 297 299 310 313 315 310 310 313 317 321
357 356 356 353 354 353 358 353 343 339 347 348 356 2 8 3 337 310 309 339 16 68 87 341 334 307 298 295 290 276 303 287 301 301 301 300 308 313 315 314 308 307 310 313 317